{"data":{"norad_id":65378,"intl_designator":"2025-190AD","name":"STARLINK-34912","alt_names":[],"object_type":"PAYLOAD","status":"ACTIVE","operator":null,"country":"US","launch_date":"2025-08-28","launch_site_code":"AFETR","launch_vehicle":null,"mission":null,"orbit_class":"UNKNOWN","rcs_meters":null,"size_class":null,"mass_kg":null,"dimensions":null,"purposes":["comms"],"wikipedia_slug":null,"has_3d_model":false,"image_url":null,"decayed_at":null,"tle_current":{"epoch":"2026-05-25T01:39:43.084224Z","epoch_age_seconds":69136,"freshness":"FRESH","line1":"1 65378U 25190AD  26145.06924866  .00021982  00000+0  75187-3 0  9997","line2":"2 65378  53.1592 173.0815 0001125  77.9739 282.1388 15.30210173 41451","mean_motion":15.30210173,"eccentricity":0.0001125,"inclination_deg":53.1592,"raan_deg":173.0815,"arg_perigee_deg":77.9739,"mean_anomaly_deg":282.1388,"bstar":0.00075187,"rev_number":4145,"period_min":94.104720084095,"perigee_km":474.41369615263,"apogee_km":475.95569353397,"semimajor_km":6853.3216948433,"source":"CELESTRAK","updated_at":"2026-05-25T13:38:20.771181Z"}}}